Regional Weather Roundup
Issued by NWS

Home | Current Version | Previous Version | Text Only | Print | Product List | Glossary On
Versions: 1 2 3 4 5 6 7 8 9 10 11 12 13 14 15 16 17 18 19 20 21 22 23 24 25 26 27 28 29 30 31 32 33 34 35 36 37 38 39 40 41 42 43 44 45 46 47 48 49 50
000
ASCA42 TJSJ 221511
RWRPR
PUERTO RICO/U.S. VIRGIN ISLANDS HOURLY WEATHER ROUNDUP
NATIONAL WEATHER SERVICE SAN JUAN PR
1100 AM AST MON DEC 22 2014

PRZ001-004-221600-
PUERTO RICO

CITY           SKY/WX    TMP DP  RH WIND       PRES   REMARKS
SAN JUAN LMM   MOSUNNY   82  73  74 E8        30.07F
CEIBA          SUNNY     82  72  69 E9        30.10F
$$

PRZ006-007-221600-
U.S. VIRGIN ISLANDS

CITY           SKY/WX    TMP DP  RH WIND       PRES   REMARKS
$$

HOURLY WEATHER ROUNDUP FOR THE NEWS MEDIA

CITY           SKY/WX    TMP DP  RH WIND       PRES   REMARKS
MIAMI          PTSUNNY   78  68  71 S9        30.05S
ORLANDO        LGT RAIN  69  66  90 SE7       30.03F
NEW YORK       CLOUDY    43  36  75 N8        30.33F
NEWARK         CLOUDY    38  33  82 N7        30.33R WCI  33
CHICAGO        CLOUDY    33  27  78 SE10      29.90F WCI  25
HARTFORD       CLOUDY    39  37  92 N7        30.37R WCI  34
BOSTON         PTSUNNY   38  32  79 N9        30.40S WCI  31
DALLAS         MOSUNNY   57  50  77 SW12      29.61R
PHILADELPHIA   MOSUNNY   39  31  72 NE7       30.32S WCI  34



USA.gov is the U.S. government's official web portal to all federal, state and local government web resources and services.